Flag for U.S.A. Weather past 2 weeks in Sunrise Manor, Nevada, U.S.A.

Now
55 °F

Passing clouds.


Feels Like: 53 °F
Forecast: 46 / 68 °F
Wind: 7 mph from Northeast

Location: Nellis Air Force Base

Current Time: Feb 27, 2015 at 12:18:09 AM

Latest Report: Feb 26, 2015 at 11:58 PM


Visibility: 10 mi

Pressure: 29.77 "Hg

Humidity: 37%

Dew point: 29 °F

Location of Sunrise ManorLocation

Historic Weather in Sunrise Manor — Graph

°F

Sunrise Manor temperature yesterday

Maximum temperature yesterday: 70 °F (at 2:58 PM)
Minimum temperature yesterday: 43 °F (at 6:58 AM)
Average temperature yesterday: 56 °F

Past Weeks' High & Low Weather Summary

 TemperatureHumidityPressure
High77 °F (Feb 13, 2:58 PM)92% (Feb 23, 4:58 AM)30.32 "Hg (Feb 23, 4:58 AM)
Low38 °F (Feb 23, 4:58 AM)9% (Feb 16, 1:58 PM)29.65 "Hg (Feb 21, 11:58 PM)
Average56 °F34%30.01 "Hg
* Reported Feb 11 10:58 PM — Feb 26 10:58 PM, Sunrise Manor, Weather by CustomWeather, © 2015

Note: Actual official high and low records may vary slightly from our data, if they occured in-between our weather recording intervals... More about our weather records

Advertising

Sunrise Manor weather history for previous 24 hours

 ConditionsComfort  
Time TempWeatherWind HumidityBarometerVisibility
10:58 PM
Thu, Feb 26
58 °FClear.14 mph29%29.76 "Hg10 mi
9:58 PM61 °FClear.14 mph24%29.76 "Hg10 mi
8:58 PM58 °FClear.9 mph37%29.76 "Hg10 mi
7:58 PM58 °FClear.5 mph34%29.76 "Hg10 mi
6:58 PM64 °FClear.7 mph22%29.74 "Hg10 mi
4:58 PM67 °FSunny.12 mph19%29.72 "Hg10 mi
3:58 PM68 °FSunny.13 mph18%29.72 "Hg10 mi
2:58 PM70 °FSunny.8 mph19%29.73 "Hg10 mi
1:58 PM69 °FSunny.6 mph18%29.75 "Hg10 mi
12:58 PM67 °FSunny.5 mph18%29.79 "Hg10 mi
11:58 AM65 °FSunny.8 mph21%29.82 "Hg10 mi
10:58 AM62 °FSunny.15 mph24%29.87 "Hg10 mi
9:58 AM59 °FSunny.5 mph37%29.89 "Hg10 mi
8:58 AM52 °FSunny.1 mph46%29.89 "Hg10 mi
7:58 AM45 °FSunny.2 mph75%29.92 "Hg10 mi
6:58 AM43 °FSunny.2 mph74%29.91 "Hg10 mi
5:58 AM45 °FPassing clouds.No wind65%29.88 "Hg10 mi
4:58 AM44 °FClear.1 mph72%29.89 "Hg10 mi
3:58 AM45 °FClear.3 mph71%29.89 "Hg10 mi
2:58 AM48 °FClear.5 mph57%29.93 "Hg10 mi
1:58 AM47 °FClear.6 mph67%29.95 "Hg10 mi
12:58 AM48 °FClear.7 mph59%29.95 "Hg10 mi
Weather by CustomWeather, © 2015

See weather overviewHow to use our weather pages